Location: ????????
(55.0559°N, 39.1270°E)
Time: 08:11:46
(UTC+00:00)

Orbus 7S? - Pass Details

Date: 15 November 2025
Orbit: 354 x 6170 km, 56.9° (Epoch: 30 September)

Event Time Altitude Azimuth Distance (km) Brightness Sun altitude
Exits shadow 03:51:03 - 257° (WSW) 2,324 6.0 -9.2°
Reaches altitude 10° 03:51:48 10° 258° (WSW) 1,976 5.6 -9.1°
Maximum altitude 03:55:41 77° 345° (NNW) 435 2.7 -8.5°
Drops below altitude 10° 03:58:19 10° 72° (ENE) 1,348 6.2 -8.2°
Sets 04:00:04 0° 74° (ENE) 2,189 7.3 -8.0°
